Regional Weather Roundup
Issued by NWS Bismarck, ND

Home | Current Version | Previous Version | Text Only | Print | Product List | Glossary On
Versions: 1 2 3 4 5 6 7 8 9 10 11 12 13 14 15 16 17 18 19 20 21 22 23 24 25 26 27 28 29 30 31 32 33 34 35 36 37 38 39 40 41 42 43 44 45 46 47 48 49 50
000
ASUS43 KBIS 251810
RWRBIS

NWR BROADCAST TEXT
NATIONAL WEATHER SERVICE BISMARCK ND
100 PM CDT SUN JUN 25 2017

NOTE: "FAIR" INDICATES FEW OR NO CLOUDS BELOW 12,000 FEET WITH NO
SIGNIFICANT WEATHER AND/OR OBSTRUCTIONS TO VISIBILITY.


CITY           SKY/WX    TMP DP  RH WIND       PRES   REMARKS
WILLISTON      PTSUNNY   68  47  46 VRB3      30.27F
MINOT          MOSUNNY   67  45  45 VRB7      30.24S
MINOT AFB      MOSUNNY   66  43  43 NE9       30.23S
BISMARCK       CLOUDY    54  49  83 SW6       30.27F
DICKINSON      CLOUDY    66  33  29 VRB5      30.25F
GARRISON         N/A     62  49  62 W7        30.24F
HETTINGER ARPT CLOUDY    71  37  28 NE14      30.26S
JAMESTOWN      CLOUDY    63  44  50 NW5       30.24F
HAZEN          FAIR      63  50  63 W9G15     30.27F
LINTON         MOCLDY   N/A N/A N/A N9        30.30S
MANDAN         FAIR      54  46  76 S7        30.28F
STANLEY        FAIR      64  43  45 N12       30.28S
TIOGA          MOCLDY    63  45  51 N12       30.28S
WATFORD CITY   FAIR      64  48  55 NE7       30.26F
$$

CITY           SKY/WX    TMP DP  RH WIND       PRES   REMARKS
GRAND FORKS    PTSUNNY   64  45  49 N10G23    30.21F
GRAND FORKS AF MOSUNNY   64  45  50 N12       30.22F
DEVILS LAKE    MOSUNNY   61  43  51 N8G17     30.25S
FARGO          PTSUNNY   66  44  45 NW15G22   30.21F
CAVALIER       FAIR      63  43  48 N12G17    30.22S
GRAFTON        FAIR      63  43  48 N10G20    30.23F
GWINNER        MOCLDY    64  43  45 NW16G22   30.24F
LANGDON        MOCLDY    61  43  51 NW9       30.24S
ROLLA            N/A     59  41  51 N14       30.26S
$$

CITY           SKY/WX    TMP DP  RH WIND       PRES   REMARKS
ABERDEEN       PTSUNNY   67  42  40 NW13G21   30.27F
MOBRIDGE       MOSUNNY   73  35  25 SE10      30.22F
BUFFALO          N/A     75  30  19 W13G18    30.21F
RAPID CITY     SUNNY     72  35  25 SE7       30.29F
GLASGOW        MOSUNNY   76  39  26 N10       30.26S
SIDNEY         SUNNY     68  40  35 CALM      30.27S
WOLF POINT     MOSUNNY   75  40  28 N9        30.26F
GLENDIVE       SUNNY     74  36  25 N15G23    30.26S
MILES CITY     SUNNY     77  30  17 SW9G20    30.25F
BAKER          SUNNY     76  30  18 NW13G24   30.27F
$$

CITY           SKY/WX    TMP DP  RH WIND       PRES   REMARKS
BILLINGS       MOSUNNY   72  37  28 SW6       30.30F
GREAT FALLS    SUNNY     73  42  32 E8        30.27F
REGINA         PTSUNNY   64  43  45 NW5       30.28R
ESTEVAN        MOSUNNY   63  41  45 CALM      30.26S
$$





USA.gov is the U.S. government's official web portal to all federal, state and local government web resources and services.